This is the latest recevied weather packets stored in our database for station/object K0CPM-2. If no packets are shown the sender has not sent any weather packets the latest 10 day(s).
| Time | Temp. | Humidity | Pressure | Rain* | Wind** | Luminosity | Snow |
|---|---|---|---|---|---|---|---|
| 1778185851 | 23.33° C | 86% | 1010.4 hPa | 0 mm | - | - | - |
| 1778184946 | 23.33° C | 85% | 1010.5 hPa | 0 mm | - | - | - |
| 1778184061 | 23.33° C | 84% | 1010.5 hPa | 0 mm | - | - | - |
| 1778183146 | 23.89° C | 84% | 1010.6 hPa | 0 mm | - | - | - |
| 1778182267 | 23.89° C | 84% | 1010.7 hPa | 0 mm | - | - | - |
| 1778181353 | 23.89° C | 85% | 1010.8 hPa | 0 mm | - | - | - |
| 1778180444 | 23.33° C | 87% | 1010.9 hPa | 0 mm | - | - | - |
| 1778179543 | 23.33° C | 84% | 1011 hPa | 0 mm | - | - | - |
| 1778178649 | 23.33° C | 87% | 1011.1 hPa | 0 mm | - | - | - |
| 1778177742 | 22.78° C | 89% | 1011.4 hPa | 0 mm | - | - | - |
| 1778176841 | 21.67° C | 91% | 1011.4 hPa | 0 mm | - | - | - |
| 1778175940 | 21.67° C | 92% | 1011.5 hPa | 0 mm | - | - | - |
| 1778175044 | 21.67° C | 92% | 1011.5 hPa | 0 mm | - | - | - |
| 1778174142 | 21.67° C | 92% | 1011.7 hPa | 0 mm | - | - | - |
| 1778173239 | 22.22° C | 90% | 1011.8 hPa | 0 mm | - | - | - |
| 1778172339 | 22.22° C | 91% | 1011.8 hPa | 0 mm | - | - | - |
| 1778171438 | 22.22° C | 92% | 1011.7 hPa | 0 mm | - | - | - |
| 1778170536 | 22.22° C | 93% | 1011.8 hPa | 0 mm | - | - | - |
| 1778169656 | 21.67° C | 93% | 1011.9 hPa | 0 mm | - | - | - |
| 1778168736 | 21.67° C | 94% | 1011.8 hPa | 0 mm | - | - | - |
| 1778167835 | 22.22° C | 94% | 1011.7 hPa | 0 mm | - | - | - |
| 1778166932 | 22.22° C | 94% | 1011.7 hPa | 0 mm | - | - | - |
| 1778166030 | 22.22° C | 94% | 1011.7 hPa | 0.25 mm | - | - | - |
| 1778165142 | 22.22° C | 94% | 1011.5 hPa | 0.51 mm | - | - | - |
| 1778164226 | 22.78° C | 95% | 1011.3 hPa | 0.76 mm | - | - | - |
* Rain latest hour (hover to see other rain measurements)
** Current wind speed in m/s (hover to see current wind gust speed)